Regional Weather Roundup
Issued by NWS

Home | Current Version | Previous Version | Graphics & Text | Print | Product List | Glossary Off
Versions: 1 2 3 4 5 6 7 8 9 10 11 12 13 14 15 16 17 18 19 20 21 22 23 24 25 26 27 28 29 30 31 32 33 34 35 36 37 38 39 40 41 42 43 44 45 46 47 48 49 50

000
ASUS43 KFSD 231810
RWRSD

WEATHER ROUNDUP FOR SOUTH DAKOTA
NATIONAL WEATHER SERVICE SIOUX FALLS SD
1200 PM CST TUE JAN 23 2018

NOTE: "FAIR" INDICATES FEW OR NO CLOUDS BELOW 12,000 FEET WITH NO
SIGNIFICANT WEATHER AND/OR OBSTRUCTIONS TO VISIBILITY.


SDZ001>005-009-010-012>017-231900-
NORTHWEST AND NORTH CENTRAL SOUTH DAKOTA

CITY           SKY/WX    TMP DP  RH WIND       PRES   REMARKS
BUFFALO          N/A    N/A N/A N/A MISG      30.06S
FAITH            N/A     34  24  67 NW12      30.11R WCI  25
MOBRIDGE       PTSUNNY   30  26  85 NW9       30.06S WCI  22
$$

SDZ012>016-024>037-041>051-057-063-072>074-231900-
SOUTHWEST AND SOUTH CENTRAL SOUTH DAKOTA

CITY           SKY/WX    TMP DP  RH WIND       PRES   REMARKS
RAPID CTY ARPT SUNNY     43  17  35 NW22      30.14F
PIERRE         PTSUNNY   36  28  73 NW10      30.11S
CUSTER         SUNNY     30  10  43 NW14G28   30.10R WCI  19
ELLSWORTH AFB  SUNNY     41  17  38 NW23      30.13S
PHILIP         CLOUDY    38  28  67 W20G26    30.15R
PINE RIDGE     SUNNY     29  23  78 SW9       30.19S WCI  20
SPEARFISH        N/A     34  18  51 W20       30.15F WCI  22
WINNER         FAIR      37  28  70 W14       30.13S
$$

SDZ004>011-016>023-039-040-231900-
NORTHEAST SOUTH DAKOTA

CITY           SKY/WX    TMP DP  RH WIND       PRES   REMARKS
ABERDEEN       CLOUDY    24  22  91 CALM      30.10F
WATERTOWN      CLOUDY    21  19  92 W8        30.08R WCI  11
BROOKINGS      CLOUDY    21  19  92 S3        30.09F
SISSETON         N/A     22  18  85 VRB3      30.11S
$$

SDZ017-020-022-023-036>040-048>070-231900-
SOUTHEAST SOUTH DAKOTA

CITY           SKY/WX    TMP DP  RH WIND       PRES   REMARKS
SIOUX FALLS    CLOUDY    22  20  92 W3        30.14S
HURON          CLOUDY    22  21  96 SW5       30.12F WCI  16
CHAMBERLAIN    CLOUDY    27  27 100 W3        30.12S
MITCHELL       CLOUDY    23  22  96 W5        30.14F FOG     WCI  17
YANKTON        CLOUDY    24  21  88 W7        30.17S WCI  16
$$

ABBREVIATIONS USED IN REMARKS
   TC - TEMPERATURE IN CELSIUS
  WCI - WIND CHILL INDEX
   HX - HEAT INDEX
  VSB - VISIBILITY





USA.gov is the U.S. government's official web portal to all federal, state and local government web resources and services.